                ,  0.937,  1.134,  1.331,  1.528,  1.725,  1.922,  2.119,  2.316,  2.513,  2.711,  2.908,  3.105,  3.302,  3.499,  3.696,  3.893,  4.090,  4.287,  4.484,  4.681,  4.878,  5.076,  5.273,  5.470,  5.667,  5.864,  6.061,  6.258,  6.455,  6.652,  6.849,  7.046,  7.243,  7.441,  7.638,  7.835,  8.032,  8.229,  8.426,  8.623,  8.820,  9.017,  9.214,  9.411,  9.608,  9.806
2001/10/22 00:00,    3.1,    7.6,    7.6,   12.4,    8.7,    9.2,    4.2,    0.7,   -0.5,   -2.3,   -5.8,   -1.4,  999.0,   -4.6,   -2.0,  999.0,  999.0,  999.0,    5.8,  999.0,  999.0,   -4.0,   -8.0,  -10.3,  999.0,  999.0,  999.0,  999.0,  999.0,  999.0,  999.0,  999.0,  999.0,  999.0,   -0.4,  999.0,  999.0,  999.0,  999.0,  999.0,  999.0,  999.0,  999.0,  999.0,  999.0,  999.0
2001/10/22 00:10,    3.3,    8.0,    7.2,    9.9,    8.1,    7.6,    6.2,    3.1,  999.0,   -2.3,  999.0,  999.0,  999.0,    0.7,  999.0,  999.0,  999.0,  999.0,  999.0,    3.2,  999.0,   -4.2,   -7.0,  999.0,  999.0,  999.0,  999.0,  999.0,  999.0,  999.0,  999.0,  999.0,  999.0,  999.0,   -1.2,  999.0,  999.0,  999.0,  999.0,  999.0,  999.0,  999.0,  999.0,  999.0,  999.0,  999.0
2001/10/22 00:20,    1.7,    6.5,    6.8,    9.1,    9.0,    7.7,    8.4,    3.4,   -0.4,   -1.3,  999.0,  999.0,  999.0,  999.0,  999.0,  999.0,    2.7,    5.0,  999.0,    4.3,  999.0,   -3.9,  999.0,  999.0,  999.0,  999.0,  999.0,  999.0,  999.0,  999.0,  999.0,  999.0,  999.0,  999.0,  999.0,  999.0,  999.0,  999.0,  999.0,  999.0,  999.0,  999.0,  999.0,  999.0,  999.0,  999.0
2001/10/22 00:30,    3.4,    4.6,    7.7,    8.8,    7.7,    7.3,    5.9,    4.9,    1.4,   -0.4,   -3.4,  999.0,  999.0,  999.0,   -0.9,    0.6,  999.0,  999.0,  999.0,    4.4,  999.0,  999.0,  999.0,  999.0,  999.0,  999.0,  999.0,  999.0,  999.0,  999.0,  999.0,  999.0,  999.0,  999.0,  999.0,  999.0,  999.0,  999.0,  999.0,  999.0,  999.0,  999.0,  999.0,  999.0,  999.0,  999.0
2001/10/22 00:40,    3.3,   13.8,    7.4,    9.4,    7.3,    8.0,    6.6,    3.5,    0.1,   -3.8,  999.0,   -2.7,  999.0,  999.0,   -0.5,    0.1,  999.0,  999.0,  999.0,  999.0,  999.0,  999.0,  999.0,  999.0,  999.0,  999.0,  999.0,  999.0,  999.0,  999.0,  999.0,  999.0,  999.0,    1.6,  999.0,  999.0,  999.0,  999.0,  999.0,  999.0,  999.0,  999.0,  999.0,  999.0,  999.0,  999.0
2001/10/22 00:50,    1.1,    7.0,    8.0,    8.4,    9.8,    8.4,    7.5,    2.8,    2.6,   -1.5,   -3.2,   -2.4,  -10.0,  999.0,   -0.5,  999.0,  999.0,  999.0,  999.0,  999.0,  999.0,  999.0,  999.0,   -6.3,  999.0,   -8.4,   -4.9,   -4.4,   -4.0,   -2.3,   -1.8,   -1.4,  999.0,  999.0,  999.0,  999.0,  999.0,  999.0,  999.0,  999.0,  999.0,  999.0,  999.0,  999.0,  999.0,  999.0
2001/10/22 01:00,    0.8,   -5.2,    9.6,    6.3,    3.6,    6.9,    8.4,    6.9,    6.0,   -1.8,  999.0,   -5.1,  999.0,  999.0,    0.2,  999.0,  999.0,  999.0,  999.0,  999.0,   -2.1,   -5.0,   -5.8,   -7.9,   -9.3,   -8.6,   -5.8,   -6.7,   -5.2,   -2.3,   -0.2,   -0.2,   -0.3,    0.4,  999.0,  999.0,  999.0,  999.0,  999.0,  999.0,  999.0,  999.0,  999.0,  999.0,  999.0,  999.0
2001/10/22 01:10,    0.4,    3.8,    9.8,    7.9,    4.4,   -1.1,    8.9,    4.4,   -6.4,    0.0,  999.0,   -1.5,  999.0,  999.0,   -0.3,  999.0,  999.0,  999.0,  999.0,   -1.9,   -6.1,   -5.0,   -6.5,   -8.1,   -8.8,   -8.0,   -7.0,   -7.0,   -3.8,   -2.5,   -2.8,   -0.7,   -1.0,   -0.6,  999.0,  999.0,  999.0,  999.0,  999.0,  999.0,  999.0,  999.0,  999.0,  999.0,  999.0,  999.0
2001/10/22 01:20,   -0.2,    3.0,    8.8,    9.9,    4.2,    5.5,    5.9,    3.5,    2.7,    1.1,   -3.0,   -4.9,   -1.5,  999.0,    0.3,  999.0,    2.5,    6.1,    3.0,   -0.4,   -3.3,   -4.6,   -5.2,   -7.7,   -8.3,   -7.1,   -7.7,   -7.0,   -3.4,   -1.4,   -3.2,   -3.7,   -3.6,   -1.7,   -2.6,  999.0,  999.0,  999.0,  999.0,  999.0,  999.0,  999.0,  999.0,  999.0,  999.0,  999.0
2001/10/22 01:30,    0.2,    6.5,    9.3,    7.6,    7.0,   11.0,    2.9,    2.5,    5.5,    3.0,    3.0,   -2.2,    0.2,    1.7,    4.0,   11.0,  999.0,    6.3,    0.4,   -2.5,   -3.5,   -4.9,   -8.6,   -7.9,   -7.3,   -6.9,   -6.9,   -5.5,   -3.0,   -1.7,   -0.7,   -1.6,   -1.3,   -1.5,   -2.0,  999.0,  999.0,  999.0,  999.0,  999.0,  999.0,  999.0,  999.0,  999.0,  999.0,  999.0
2001/10/22 01:40,    3.3,    6.2,   13.1,    5.4,    2.9,    0.3,    2.9,    4.3,    3.0,    1.3,    0.7,    3.4,    3.7,    1.7,    3.3,    9.3,    9.9,    4.3,    1.5,   -0.7,   -1.5,   -2.3,   -4.4,   -7.1,   -8.2,   -7.2,   -7.2,   -2.7,   -1.2,   -0.9,   -0.8,   -1.5,   -3.5,   -4.0,  999.0,  999.0,  999.0,  999.0,  999.0,  999.0,  999.0,  999.0,  999.0,  999.0,  999.0,  999.0
2001/10/22 01:50,    3.4,    4.5,    9.4,    8.6,   -1.4,   -3.5,    2.9,    0.9,    2.3,   -8.0,   -4.8,   -1.5,    2.8,    2.4,    3.5,    6.6,    8.4,    4.1,    0.8,   -0.3,   -1.7,   -2.7,   -6.1,  999.0,   -8.0,   -6.4,   -3.7,   -2.7,   -0.3,   -3.0,  999.0,   -4.6,  999.0,  999.0,  999.0,  999.0,  999.0,  999.0,  999.0,  999.0,  999.0,  999.0,  999.0,  999.0,  999.0,  999.0
2001/10/22 02:00,    1.2,    7.8,   10.5,    8.4,    5.5,   13.3,    0.8,   -1.5,  999.0,  999.0,   -7.2,   -5.5,   -0.7,    2.0,    2.3,    7.1,    7.5,  999.0,  999.0,  999.0,  999.0,  999.0,  999.0,  999.0,   -7.3,   -5.9,   -3.7,   -0.9,  999.0,  999.0,  999.0,  999.0,   -3.4,  999.0,  999.0,  999.0,  999.0,  999.0,  999.0,  999.0,  999.0,  999.0,  999.0,  999.0,  999.0,  999.0
2001/10/22 02:10,    1.2,    6.9,    8.5,    8.7,    8.8,    0.1,    5.5,    4.7,   -2.9,   -3.5,   -3.5,  999.0,  999.0,    1.8,    3.1,  999.0,  999.0,  999.0,  999.0,  999.0,  999.0,  999.0,  999.0,  999.0,   -4.8,   -2.5,   -2.4,   -0.8,  999.0,  999.0,  999.0,   -3.6,   -4.3,   -6.8,  999.0,  999.0,  999.0,  999.0,  999.0,  999.0,  999.0,  999.0,  999.0,  999.0,  999.0,  999.0
2001/10/22 02:20,    2.0,    6.1,   10.3,    7.9,    4.7,    9.0,    5.9,    2.9,    1.4,  999.0,   -0.3,  999.0,  999.0,    2.5,  999.0,  999.0,    6.7,    4.3,  999.0,  999.0,  999.0,  999.0,  999.0,   -7.0,   -5.7,  999.0,  999.0,   -1.0,  999.0,  999.0,  999.0,  999.0,   -4.1,   -5.3,   -6.5,  999.0,  999.0,  999.0,  999.0,  999.0,  999.0,  999.0,  999.0,  999.0,  999.0,  999.0
2001/10/22 02:30,    2.6,    6.6,    8.3,    8.1,    8.0,    6.5,    7.3,    4.0,    0.3,    1.4,   -2.8,    2.0,  999.0,  999.0,  999.0,    6.4,    7.0,    4.8,  999.0,  999.0,  999.0,  999.0,   -5.0,   -6.9,   -5.9,   -3.0,   -0.7,    0.6,    0.8,   -0.3,   -1.3,   -2.7,   -3.2,   -4.8,   -5.8,  999.0,  999.0,  999.0,  999.0,  999.0,  999.0,  999.0,  999.0,  999.0,  999.0,  999.0
2001/10/22 02:40,    3.4,    9.2,   10.6,    7.5,    7.5,    5.1,    7.0,    6.1,    1.2,    2.2,   -0.3,    0.9,  999.0,  999.0,  999.0,    7.0,    7.2,    3.7,   -0.3,  999.0,   -1.5,   -2.0,   -5.9,   -7.4,   -5.3,   -3.0,    0.4,    1.4,    0.4,   -0.3,   -0.3,   -0.8,   -1.6,   -2.2,   -2.2,   -1.9,   -1.7,   -2.1,  999.0,  999.0,  999.0,  999.0,  999.0,  999.0,  999.0,  999.0
2001/10/22 02:50,    3.1,    8.0,    9.7,    7.0,    5.5,    6.5,    6.0,    6.7,    3.8,    2.3,    1.7,  999.0,  999.0,  999.0,    6.2,    7.0,    6.8,  999.0,  999.0,   -1.5,   -0.6,   -1.7,   -5.3,   -7.5,   -5.6,   -1.8,    0.6,    0.1,    0.9,    1.3,    0.1,   -0.2,   -0.5,   -1.1,   -1.8,   -2.3,   -2.3,   -1.8,   -1.9,  999.0,  999.0,  999.0,  999.0,  999.0,  999.0,  999.0
2001/10/22 03:00,    2.5,    8.5,   10.6,    7.5,    4.8,  999.0,    3.4,    4.0,    3.1,    2.0,    0.5,    0.1,  999.0,  999.0,    5.9,    6.9,    4.5,    1.7,   -0.2,   -0.3,   -0.0,   -1.4,   -4.5,   -7.0,  999.0,  999.0,   -0.4,  999.0,  999.0,  999.0,  999.0,  999.0,   -2.8,  999.0,  999.0,  999.0,  999.0,  999.0,  999.0,  999.0,  999.0,  999.0,  999.0,  999.0,  999.0,  999.0
2001/10/22 03:10,    3.7,    7.1,    7.4,    6.8,    3.5,    5.1,    5.0,    4.6,    4.2,   -0.2,   -2.3,   -0.3,    3.6,    4.8,    4.7,    4.9,    5.1,    1.6,   -0.1,   -0.6,   -1.5,   -2.3,   -5.0,  999.0,  999.0,  999.0,  999.0,  999.0,  999.0,    1.1,  999.0,    0.8,   -3.2,  999.0,  999.0,  999.0,  999.0,  999.0,  999.0,  999.0,  999.0,  999.0,  999.0,  999.0,  999.0,  999.0
2001/10/22 03:20,    3.1,    9.0,    7.8,    5.3,    2.0,    5.6,    5.3,    5.6,    4.9,    2.4,  999.0,   -0.2,    4.1,    5.6,    5.9,    6.2,    4.9,  999.0,  999.0,  999.0,  999.0,   -3.1,   -4.5,  999.0,  999.0,  999.0,  999.0,  999.0,  999.0,  999.0,  999.0,  999.0,  999.0,  999.0,  999.0,  999.0,  999.0,  999.0,  999.0,  999.0,  999.0,  999.0,  999.0,  999.0,  999.0,  999.0
2001/10/22 03:30,    2.8,    8.6,   11.6,    7.0,  999.0,    5.5,    4.7,    4.1,    7.7,    5.2,   -1.7,    1.2,    3.1,    4.9,    4.4,    3.3,    4.7,  999.0,  999.0,  999.0,  999.0,   -0.9,   -4.6,  999.0,  999.0,   -2.5,   -1.1,   -1.2,   -0.1,    0.9,    0.2,   -1.6,   -2.2,   -1.0,   -0.1,  999.0,  999.0,  999.0,  999.0,  999.0,  999.0,  999.0,  999.0,  999.0,  999.0,  999.0
2001/10/22 03:40,    2.7,    7.1,    9.0,    6.0,    2.6,    5.3,    3.5,    5.1,    4.6,    2.9,    0.7,  999.0,    2.1,  999.0,    4.6,    4.7,    4.3,  999.0,  999.0,  999.0,  999.0,   -2.4,   -6.4,   -6.9,   -5.4,   -3.4,   -0.9,   -0.6,    0.4,    1.2,    0.4,    0.5,   -1.0,   -0.8,   -3.2,   -3.1,  999.0,  999.0,  999.0,  999.0,  999.0,  999.0,  999.0,  999.0,  999.0,  999.0
2001/10/22 03:50,    4.6,    8.6,    9.6,    5.2,    4.1,    4.5,    4.5,    3.6,    4.1,    0.6,    0.7,  999.0,    3.1,  999.0,    5.1,    2.9,    0.5,    0.9,    1.3,    0.5,  999.0,  999.0,   -7.3,  999.0,   -5.0,   -2.4,   -1.2,    0.7,    1.5,    0.8,  999.0,  999.0,  999.0,  999.0,  999.0,  999.0,  999.0,  999.0,  999.0,  999.0,  999.0,  999.0,  999.0,  999.0,  999.0,  999.0
2001/10/22 04:00,    4.6,    9.9,   10.5,    5.6,    5.2,    7.6,    3.5,    1.4,    5.7,    1.9,    0.7,    0.2,    3.6,    4.8,    4.2,    3.1,    0.4,    0.0,    0.9,    0.1,   -2.1,   -4.8,  999.0,  999.0,  999.0,  999.0,  999.0,  999.0,  999.0,  999.0,  999.0,   -5.3,  999.0,  999.0,  999.0,  999.0,  999.0,  999.0,  999.0,  999.0,  999.0,  999.0,  999.0,  999.0,  999.0,  999.0
2001/10/22 04:10,    6.6,    8.5,   11.1,    7.5,    0.5,    5.0,    5.9,    4.4,    4.8,    3.6,    0.8,    2.5,    4.6,    4.9,    3.5,    1.8,   -0.3,    0.6,    0.6,   -3.3,   -3.6,   -6.0,  999.0,  999.0,  999.0,   -5.7,   -4.5,   -4.3,  999.0,  999.0,  999.0,  999.0,  999.0,  999.0,  999.0,  999.0,  999.0,  999.0,  999.0,  999.0,  999.0,  999.0,  999.0,  999.0,  999.0,  999.0
2001/10/22 04:20,    5.9,    8.6,   10.9,    6.7,    3.7,    3.3,    5.8,    3.7,    4.3,    4.1,    2.3,    2.0,    5.0,  999.0,    1.0,  999.0,  999.0,  999.0,  999.0,  999.0,   -4.5,  999.0,  999.0,  999.0,  999.0,  999.0,  999.0,  999.0,  999.0,  999.0,  999.0,  999.0,  999.0,  999.0,  999.0,  999.0,  999.0,  999.0,  999.0,  999.0,  999.0,  999.0,  999.0,  999.0,  999.0,  999.0
2001/10/22 04:30,    4.4,    7.5,    9.3,    4.9,    2.4,    3.1,    5.6,    5.2,    5.8,    5.1,    2.1,    3.8,  999.0,    5.2,  999.0,  999.0,  999.0,  999.0,  999.0,    1.6,   -2.5,   -4.7,   -5.9,   -4.0,   -3.0,   -1.3,    0.2,    0.9,    1.1,    1.3,  999.0,  999.0,  999.0,  999.0,  999.0,  999.0,  999.0,  999.0,  999.0,  999.0,  999.0,  999.0,  999.0,  999.0,  999.0,  999.0
2001/10/22 04:40,    5.5,    8.3,   10.3,   11.7,   10.8,   14.4,    3.3,    6.4,    6.7,    7.2,    2.8,    4.1,    5.6,    5.8,    4.9,  999.0,  999.0,  999.0,  999.0,  999.0,   -2.0,  999.0,   -4.9,   -4.6,   -2.8,   -0.5,    1.1,    1.1,    0.9,  999.0,  999.0,  999.0,  999.0,  999.0,  999.0,  999.0,  999.0,  999.0,  999.0,  999.0,  999.0,  999.0,  999.0,  999.0,  999.0,  999.0
2001/10/22 04:50,    5.7,    7.2,  999.0,    3.6,    1.6,    4.7,    6.5,    6.6,    6.3,    6.9,    3.6,    2.6,  999.0,  999.0,  999.0,  999.0,  999.0,  999.0,    2.2,    2.4,   -1.4,   -4.5,   -5.2,  999.0,   -1.4,    1.0,    1.2,    0.6,    0.8,    0.1,   -1.1,   -2.2,   -3.6,   -4.5,  999.0,  999.0,  999.0,  999.0,  999.0,  999.0,  999.0,  999.0,  999.0,  999.0,  999.0,  999.0
2001/10/22 05:00,    2.2,    9.2,    8.0,    2.8,    2.3,    5.0,    6.3,    7.5,    6.9,    8.2,    7.2,    2.4,  999.0,    5.1,  999.0,  999.0,  999.0,  999.0,  999.0,    0.8,   -1.7,   -3.5,   -4.8,   -3.6,    0.5,    1.8,    1.4,    0.2,    0.3,    0.1,   -1.8,   -3.2,   -4.5,  999.0,  999.0,  999.0,  999.0,  999.0,  999.0,  999.0,  999.0,  999.0,  999.0,  999.0,  999.0,  999.0
2001/10/22 05:10,    2.2,    9.7,    8.9,    3.5,    0.2,    4.7,    6.3,    8.6,    7.5,    6.9,    6.3,    4.6,    6.3,  999.0,    3.4,    2.1,  999.0,    4.0,    2.4,    0.4,    0.6,   -3.3,   -4.5,   -3.1,    0.1,    1.5,    1.1,   -0.2,   -1.5,   -1.4,   -1.6,  999.0,  999.0,  999.0,  999.0,  999.0,  999.0,  999.0,  999.0,  999.0,  999.0,  999.0,  999.0,  999.0,  999.0,  999.0
2001/10/22 05:20,  999.0,    9.1,    9.8,    5.7,    6.7,    7.9,    9.1,    7.7,    6.7,    3.6,    0.6,    1.2,    3.6,    2.6,    2.9,    1.7,    1.5,    3.1,    1.8,    0.2,   -1.1,   -3.0,   -3.9,   -2.4,   -0.2,    1.8,    2.7,    1.9,    0.5,   -0.9,  999.0,  999.0,  999.0,  999.0,  999.0,  999.0,  999.0,  999.0,  999.0,  999.0,  999.0,  999.0,  999.0,  999.0,  999.0,  999.0
2001/10/22 05:30,  999.0,    8.5,    8.9,    4.6,    6.9,    8.4,    8.8,    5.0,    3.4,    2.7,    2.9,    1.9,    3.6,    1.7,    2.9,    2.3,    2.5,    3.7,    3.0,    0.8,   -1.1,   -2.4,   -3.5,   -0.7,    1.5,    2.5,    2.9,    1.8,    0.9,    1.6,  999.0,  999.0,  999.0,  999.0,  999.0,  999.0,  999.0,  999.0,  999.0,  999.0,  999.0,  999.0,  999.0,  999.0,  999.0,  999.0
2001/10/22 05:40,    4.6,    8.1,    8.9,    4.2,    2.2,   -4.3,    7.2,    5.8,    6.4,    7.2,    4.4,    3.7,    6.2,    5.6,    3.6,  999.0,    3.3,    3.9,    3.5,    1.2,   -0.8,   -2.9,   -2.9,    0.2,    2.1,    1.1,    0.7,    2.0,    1.6,    0.5,  999.0,  999.0,  999.0,  999.0,  999.0,  999.0,  999.0,  999.0,  999.0,  999.0,  999.0,  999.0,  999.0,  999.0,  999.0,  999.0
2001/10/22 05:50,    2.7,    7.6,    9.3,  999.0,    0.5,    3.4,    5.9,    5.9,    7.1,    7.4,    4.0,    4.3,    6.7,    4.5,    3.1,  999.0,    5.0,    5.0,    3.3,    1.8,   -0.2,   -2.9,   -2.6,    0.2,    1.8,    2.4,    3.0,    3.2,    3.2,    0.9,    1.2,  999.0,  999.0,  999.0,  999.0,  999.0,  999.0,  999.0,  999.0,  999.0,  999.0,  999.0,  999.0,  999.0,  999.0,  999.0
2001/10/22 06:00,    4.0,   10.1,    9.4,    4.8,    6.1,   11.5,    7.8,    9.6,    9.3,    9.1,    6.8,    4.4,    6.6,    4.3,    3.0,    3.0,    4.8,    4.9,    3.9,    2.4,    1.1,   -0.5,    0.5,    2.6,    2.6,    3.0,    2.2,    2.9,    1.4,    0.2,   -0.3,   -0.1,   -1.3,  999.0,  999.0,  999.0,  999.0,  999.0,  999.0,  999.0,  999.0,  999.0,  999.0,  999.0,  999.0,  999.0
2001/10/22 06:10,    6.2,    8.0,   10.1,    6.2,    8.5,   10.2,    9.6,    9.0,    9.7,   10.0,    6.6,    5.6,    6.8,    5.5,    2.5,    2.3,    3.4,    5.1,    3.2,    2.0,    0.5,    1.0,    2.3,    3.0,    3.2,    3.6,    3.1,    2.0,    0.8,    1.6,  999.0,  999.0,  999.0,  999.0,  999.0,  999.0,  999.0,  999.0,  999.0,  999.0,  999.0,  999.0,  999.0,  999.0,  999.0,  999.0
2001/10/22 06:20,    3.6,    6.9,    4.8,    5.4,    5.8,    6.8,    7.2,    8.6,    7.9,    7.1,    5.9,    3.4,    4.2,    4.6,    2.4,    1.9,    2.6,    3.1,    2.4,    1.6,    2.0,    2.6,    3.5,    4.3,    3.9,    2.5,    1.8,    0.3,   -1.1,  999.0,  999.0,   -2.4,  999.0,  999.0,   -2.9,   -4.4,  999.0,  999.0,  999.0,  999.0,  999.0,  999.0,  999.0,  999.0,  999.0,  999.0
2001/10/22 06:30,    5.2,    9.0,   11.6,   10.6,   10.3,   10.4,    6.8,    9.7,   10.4,    8.3,    6.7,    5.7,    5.3,    5.8,    2.2,    1.9,    2.7,    3.5,    3.0,    2.2,    1.5,    2.1,    3.6,    3.2,    1.3,   -1.1,   -2.6,   -4.1,  999.0,  999.0,  999.0,  999.0,  999.0,  999.0,  999.0,  999.0,  999.0,  999.0,  999.0,  999.0,  999.0,  999.0,  999.0,  999.0,  999.0,  999.0
2001/10/22 06:40,    0.9,    8.9,   10.2,    9.1,    8.7,    8.6,   10.3,    8.5,    7.9,    7.1,    7.2,    5.8,    5.1,    5.6,    2.9,    2.2,    3.4,    3.4,    2.1,    3.2,    4.3,    1.6,    3.6,    2.2,    1.7,   -0.4,   -2.3,   -0.7,    1.1,    0.9,    0.5,  999.0,  999.0,   -1.6,  999.0,  999.0,  999.0,  999.0,  999.0,  999.0,  999.0,  999.0,  999.0,  999.0,  999.0,  999.0
2001/10/22 06:50,    3.5,    8.2,   13.1,    7.3,    8.2,    8.8,    8.6,    7.8,    4.8,    6.1,    6.1,    5.5,    4.5,    5.5,    4.0,    3.5,    3.5,    5.6,    4.7,    3.7,    3.1,    2.7,    3.5,    2.0,    0.4,   -1.0,   -1.1,   -0.4,    0.8,    0.2,    2.4,    1.3,    1.7,    1.2,   -1.6,  999.0,  999.0,  999.0,  999.0,  999.0,  999.0,  999.0,  999.0,  999.0,  999.0,  999.0
2001/10/22 07:00,    0.2,    7.7,   10.2,    9.7,    8.6,    9.1,    7.3,    5.5,    5.3,    4.4,    5.8,    4.7,    4.7,    6.8,    5.1,    3.8,    4.7,    5.9,    5.5,    5.7,    5.4,    5.0,    3.7,    1.8,    0.5,   -0.3,    1.1,    2.0,    1.7,  999.0,  999.0,  999.0,  999.0,  999.0,  999.0,  999.0,  999.0,  999.0,  999.0,  999.0,  999.0,  999.0,  999.0,  999.0,  999.0,  999.0
2001/10/22 07:10,    3.8,    9.5,   10.9,   10.1,    7.9,    8.0,    7.8,    8.5,    5.9,    6.2,    6.8,    6.4,    5.1,    6.5,    4.5,    4.8,    4.9,    5.9,    6.4,    5.8,    5.2,    4.6,    3.3,    2.1,    1.6,    1.9,    1.8,    1.8,    1.0,    0.4,    0.1,   -0.7,   -1.9,   -2.4,   -3.0,  999.0,  999.0,  999.0,  999.0,  999.0,  999.0,  999.0,  999.0,  999.0,  999.0,  999.0
2001/10/22 07:20,    5.6,    6.9,   10.3,    9.3,    6.9,    7.5,    8.1,    7.5,    5.8,    6.0,    6.8,    7.5,    5.8,    5.9,    5.8,    6.3,    4.8,    5.9,    6.4,    5.9,    6.1,    5.7,    4.7,    3.4,    3.5,    2.5,    0.5,    2.1,    1.9,    1.5,    0.1,   -0.5,  999.0,  999.0,  999.0,  999.0,  999.0,  999.0,  999.0,  999.0,  999.0,  999.0,  999.0,  999.0,  999.0,  999.0
2001/10/22 07:30,    5.7,    7.3,   10.2,   10.3,    8.9,    9.2,    9.9,    9.3,    7.4,    6.1,    6.0,    7.6,    5.6,    5.5,    6.0,    6.5,    5.5,    7.0,    6.9,    6.2,    6.3,  999.0,    3.6,    2.5,    0.9,   -0.1,   -0.3,    0.1,   -1.0,   -1.6,   -1.4,   -1.1,   -1.1,   -1.0,  999.0,  999.0,  999.0,  999.0,  999.0,  999.0,  999.0,  999.0,  999.0,  999.0,  999.0,  999.0
2001/10/22 07:40,    6.6,    8.6,   10.1,    8.7,    7.8,    8.8,   10.0,   10.0,    7.6,    6.4,    6.6,    7.4,    6.4,    5.2,    5.3,    4.8,    5.1,  999.0,    7.8,    7.1,    7.0,  999.0,    5.1,    2.8,    1.0,    0.5,   -0.3,   -0.4,   -0.8,   -0.4,   -0.7,   -0.9,  999.0,  999.0,  999.0,  999.0,  999.0,  999.0,  999.0,  999.0,  999.0,  999.0,  999.0,  999.0,  999.0,  999.0
2001/10/22 07:50,    7.6,    9.5,   10.0,    7.8,    7.8,    8.9,   10.4,   10.8,   10.0,    8.8,    7.7,    7.3,    5.7,    4.9,    4.9,    4.4,    4.6,    6.1,    7.8,    8.0,    7.9,    5.6,    4.8,    3.3,    2.0,    1.1,   -1.1,  999.0,  999.0,  999.0,  999.0,   -0.8,   -2.5,  999.0,  999.0,  999.0,  999.0,  999.0,  999.0,  999.0,  999.0,  999.0,  999.0,  999.0,  999.0,  999.0
2001/10/22 08:00,    7.2,   10.0,   10.5,    6.7,    7.0,    8.7,   10.0,   10.9,   10.8,   11.1,   10.6,    8.8,    6.7,    4.5,    4.9,    5.2,    5.1,    6.4,    7.9,    9.1,    7.7,    6.4,    4.7,    2.8,    1.7,    1.1,   -0.2,   -0.3,    2.0,    3.8,    3.6,    1.8,  999.0,  999.0,  999.0,  999.0,  999.0,  999.0,  999.0,  999.0,  999.0,  999.0,  999.0,  999.0,  999.0,  999.0
2001/10/22 08:10,    7.5,   10.4,   10.0,    6.9,    8.1,    9.0,   10.0,   11.9,   10.5,   10.2,    9.6,    7.8,    6.1,    4.2,    5.7,    6.2,    5.2,    5.5,    7.9,    9.2,    8.9,    7.7,    6.1,    4.8,    3.5,    2.6,    2.2,    2.0,    2.6,    1.7,    1.2,    2.0,    1.9,   -0.3,   -0.7,   -0.7,    0.7,   -0.5,   -0.9,   -2.6,  999.0,  999.0,  999.0,  999.0,  999.0,  999.0
2001/10/22 08:20,    7.3,    9.8,   11.1,    6.7,    7.8,    8.4,    9.8,   10.4,   10.9,   10.2,    8.0,    5.9,    4.4,    5.3,    5.7,    5.1,  999.0,    6.4,  999.0,    7.7,    9.1,    7.5,    5.9,    5.5,    3.9,    2.9,    1.9,    1.4,    1.1,    0.9,   -0.9,   -3.4,   -3.7,   -2.9,   -3.2,   -2.2,   -1.4,   -2.8,  999.0,  999.0,  999.0,  999.0,  999.0,  999.0,  999.0,  999.0
2001/10/22 08:30,    6.7,    9.4,    9.9,    7.0,    8.6,    9.9,   10.8,   11.4,   12.1,   11.2,    7.8,    5.3,    4.3,    4.1,    5.0,    5.2,    6.9,    6.7,    6.8,    7.3,    8.3,    7.8,    5.7,    4.0,    3.2,    2.5,    3.1,   -0.1,   -1.9,   -2.2,    0.4,  999.0,  999.0,  999.0,  999.0,  999.0,  999.0,  999.0,  999.0,  999.0,  999.0,  999.0,  999.0,  999.0,  999.0,  999.0
2001/10/22 08:40,    6.9,    9.8,    9.5,    7.9,    8.9,   10.8,   11.8,   12.7,   12.5,    9.9,    5.4,    3.6,    3.7,    3.2,    4.4,    4.7,    6.4,    8.9,    7.0,    8.8,    8.4,    6.5,    5.2,    3.8,    3.2,    3.7,    2.8,    2.0,   -0.0,  999.0,  999.0,  999.0,  999.0,  999.0,  999.0,  999.0,  999.0,  999.0,  999.0,  999.0,  999.0,  999.0,  999.0,  999.0,  999.0,  999.0
2001/10/22 08:50,    6.6,    9.1,    9.6,    9.0,    9.8,   12.0,   13.3,   12.8,   12.6,   10.6,    6.6,    4.1,    4.4,    6.2,    4.4,  999.0,    4.2,    4.8,    6.3,    6.1,    4.2,    2.9,    2.2,    0.2,    0.4,    0.4,    1.5,   -0.3,  999.0,  999.0,  999.0,  999.0,  999.0,  999.0,  999.0,  999.0,  999.0,  999.0,  999.0,  999.0,  999.0,  999.0,  999.0,  999.0,  999.0,  999.0
2001/10/22 09:00,    7.2,    9.2,   10.1,    9.8,   10.0,   11.5,   12.8,   14.3,   12.8,    9.2,    5.1,    3.9,    4.7,    4.9,    3.6,    3.4,    4.5,    5.2,    5.4,    5.1,    3.7,    3.4,    3.1,    2.0,   -0.0,   -2.2,   -4.3,  999.0,  999.0,  999.0,  999.0,  999.0,  999.0,  999.0,  999.0,  999.0,  999.0,  999.0,  999.0,  999.0,  999.0,  999.0,  999.0,  999.0,  999.0,  999.0
2001/10/22 09:10,    3.4,    9.2,    8.9,    9.3,   10.6,   13.5,   13.1,   16.1,   11.6,    6.6,    4.4,    3.3,    2.9,    3.3,    3.2,    3.9,    3.7,    3.3,    3.4,    2.7,    3.4,    3.0,    1.8,   -0.2,   -0.5,   -1.3,   -4.3,  999.0,  999.0,  999.0,  999.0,  999.0,  999.0,  999.0,  999.0,  999.0,  999.0,  999.0,  999.0,  999.0,  999.0,  999.0,  999.0,  999.0,  999.0,  999.0
2001/10/22 09:20,    4.7,   10.3,   12.8,   10.8,    6.2,   12.2,   13.5,   13.1,   11.7,    6.6,    5.7,    1.9,    1.4,    1.8,    4.2,    4.4,    4.5,    5.1,    5.0,    4.8,    3.0,    0.8,   -1.8,   -1.8,   -3.4,   -5.2,  999.0,  999.0,  999.0,  999.0,  999.0,  999.0,  999.0,  999.0,  999.0,  999.0,  999.0,  999.0,  999.0,  999.0,  999.0,  999.0,  999.0,  999.0,  999.0,  999.0
2001/10/22 09:30,    1.0,   10.6,   10.6,   11.5,   10.3,   11.8,   13.2,   13.3,   11.5,    8.0,    5.0,    3.7,    2.0,    3.6,    4.4,    4.9,    5.5,    5.3,    5.0,    3.6,    2.6,    0.6,  999.0,  999.0,   -4.2,  999.0,  999.0,  999.0,  999.0,  999.0,  999.0,  999.0,  999.0,  999.0,  999.0,  999.0,  999.0,  999.0,  999.0,  999.0,  999.0,  999.0,  999.0,  999.0,  999.0,  999.0
2001/10/22 09:40,    0.3,    7.8,   12.1,   12.2,   10.7,   12.7,   13.7,   14.1,   13.7,   12.0,    7.0,    4.2,    3.6,    4.3,    6.5,    7.0,    6.8,    6.1,    5.5,    4.5,  999.0,  999.0,  999.0,  999.0,  999.0,  999.0,  999.0,  999.0,  999.0,  999.0,  999.0,  999.0,  999.0,  999.0,  999.0,  999.0,  999.0,  999.0,  999.0,  999.0,  999.0,  999.0,  999.0,  999.0,  999.0,  999.0
2001/10/22 09:50,    0.1,    6.8,   12.2,   11.4,   10.6,   12.7,   12.9,   14.3,   13.5,   11.5,    7.9,    3.7,    3.7,    3.8,    7.2,    8.0,    7.0,    6.9,    5.8,    4.7,  999.0,  999.0,  999.0,  999.0,  999.0,  999.0,  999.0,  999.0,  999.0,  999.0,  999.0,  999.0,  999.0,  999.0,  999.0,  999.0,  999.0,  999.0,  999.0,  999.0,  999.0,  999.0,  999.0,  999.0,  999.0,  999.0
